| Date | Time | Temp. (oF) | Dew Point (oF) | Rel. Hum. (%) | Press. (in.) | Wind Dir. | Wind Speed (mph) | Hourly Rainfall (in.) |
|
|---|---|---|---|---|---|---|---|---|---|
| 1 | 12/10 | 00:00 | 21 | 15 | 78 | 30.13 | WNW | 3 | 0.00 |
| 2 | 12/09 | 23:00 | 23 | 16 | 75 | 30.16 | W | 2 | 0.00 |
| 3 | 12/09 | 22:00 | 24 | 16 | 72 | 30.17 | NW | 3 | 0.00 |
| 4 | 12/09 | 21:00 | 25 | 16 | 69 | 30.18 | NNW | 0 | 0.00 |
| 5 | 12/09 | 20:00 | 25 | 16 | 69 | 30.21 | NNW | 1 | 0.00 |
| 6 | 12/09 | 19:00 | 26 | 15 | 65 | 30.23 | N | 0 | 0.00 |
| 7 | 12/09 | 18:00 | 27 | 16 | 63 | 30.26 | NNW | 1 | 0.00 |
| 8 | 12/09 | 17:00 | 27 | 15 | 62 | 30.28 | NNW | 2 | 0.00 |
| 9 | 12/09 | 16:00 | 28 | 15 | 58 | 30.28 | NW | 5 | 0.00 |
| 10 | 12/09 | 15:00 | 29 | 16 | 59 | 30.31 | N | 3 | 0.00 |
| 11 | 12/09 | 14:00 | 29 | 16 | 59 | 30.32 | ENE | 1 | 0.00 |
| 12 | 12/09 | 13:00 | 29 | 17 | 63 | 30.34 | ESE | 1 | 0.00 |
| 13 | 12/09 | 12:00 | 28 | 18 | 67 | 30.38 | SSE | 1 | 0.00 |
| 14 | 12/09 | 11:00 | 27 | 18 | 71 | 30.42 | NNW | 1 | 0.00 |
| 15 | 12/09 | 10:00 | 25 | 18 | 76 | 30.44 | ENE | 3 | 0.00 |
| 16 | 12/09 | 09:00 | 23 | 18 | 81 | 30.46 | W | 1 | 0.00 |
| 17 | 12/09 | 08:00 | 22 | 17 | 83 | 30.46 | W | 1 | 0.00 |
| 18 | 12/09 | 07:00 | 22 | 17 | 83 | 30.47 | W | 1 | 0.00 |
| 19 | 12/09 | 06:00 | 22 | 18 | 85 | 30.47 | S | 1 | 0.00 |
| 20 | 12/09 | 05:00 | 22 | 16 | 80 | 30.47 | S | 1 | 0.00 |
| 21 | 12/09 | 04:00 | 22 | 17 | 83 | 30.48 | S | 0 | 0.00 |
| 22 | 12/09 | 03:00 | 22 | 17 | 81 | 30.51 | S | 2 | 0.00 |
| 23 | 12/09 | 02:00 | 22 | 16 | 80 | 30.53 | S | 1 | 0.00 |
| 24 | 12/09 | 01:00 | 23 | 15 | 74 | 30.53 | SW | 1 | 0.00 |